Weather in Shchuche

Russia / Yamalo-Nenets Autonomous Okrug     67°15′52″N   68°40′20″E
temp.,
°C
wind,
m/s
gust,
m/s
humid.,
%
clouds,
%
prec.,
mm/h
press.,
hPa
HPBL,
m
9 december, thu
thu923:00−7w81476100 0.0 1014310
02:00−8w71378100 0.0 1015259
05:00−9w71379100 0.0 1016228
08:00−10w5127988 0.0 1017152
11:00−11nw2487100 0.0 101884
14:00−13nnw128898 0.0 102026
17:00−16nw229284 0.0 10229
20:00−17w119659 0.1 10239
10 december, fri
fri1023:00−20se1110095 0.1 10249
02:00−20se22100100 0.1 102422
05:00−17se369987 0.1 102398
08:00−16sse369298 0.0 1021147
11:00−15ese3589100 0.0 1019170
14:00−14e4896100 0.8 1017270
17:00−13ene4996100 3.5 1014381
20:00−13ne5796100 2.3 1013391
11 december, sat
sat1123:00−14nne6995100 3.7 1013399
02:00−15n71095100 0.9 1014482
05:00−16n81295100 1.5 1016543
08:00−16n81493100 0.4 1018575
11:00−16n81491100 0.6 1021513
14:00−16n71391100 0.0 1023421
17:00−19n379637 0.0 102588
20:00−25nnw2210060 0.0 102614
12 december, sun
sun1223:00−23nw1110093 0.0 10269
02:00−21ssw2299100 0.1 102623
05:00−19ssw3696100 0.1 1025106
08:00−17s3596100 0.1 1023153
11:00−15sse2496100 0.6 1023138
14:00−16ese1198100 0.3 102417
17:00−19ese1110063 0.4 10259
20:00−23sse1110089 0.0 10279
13 december, mon
mon1323:00−25ssw11100100 0.1 10289
02:00−26s1110098 0.0 10289
05:00−27s22100100 0.0 102910
08:00−27s22100100 0.0 102923
11:00−25s34100100 0.1 102946
14:00−24s47100100 0.0 102882
17:00−21s510100100 0.1 1026163
20:00−17s61396100 0.0 1022284